User: anonymous   Login
Location: Caltech
(34.1382°N, 118.1253°W)
Time: 05:35:57
(UTC-07:00)
Language:

BREEZE M DEB (TANK) - Orbit

View from above orbital plane
View from above orbital plane
View from above satellite
View from above satellite

Ground track
Ground track

The orbit data is extracted from the following two-line orbital elements,

1 33437U 08057B   17143.56122795 +.00000726 +00000-0 +14137-3 0  9997
2 33437 049.5346 267.0178 5003262 057.7971 341.2562 05.60353293172467
Epoch (UTC): 23 May 2017 13:28:10
Eccentricity: 0.5003262
inclination: 49.5346°
perigee height: 312 km
apogee height: 13710 km
right ascension of ascending node: 267.0178°
argument of perigee: 57.7971°
revolutions per day: 5.60353293
mean anomaly at epoch: 341.2562°
orbit number at epoch: 17246

The dashed part of the orbit path shows where the satellite is in the earth's shadow,  

DLR